Waarnemingen

Advertentie
Mijn weer
Calvi, Frankrijk (7754): temperatuur & dauwpunt: 13.09.2019 06:00:00 - 19.09.2019 06:00:00 (CEST)Calvi, Frankrijk (7754): temperatuur 5cm: 13.09.2019 06:00:00 - 19.09.2019 06:00:00 (CEST)Calvi, Frankrijk (7754): windsnelheid & windstoten: 13.09.2019 06:00:00 - 19.09.2019 06:00:00 (CEST)Calvi, Frankrijk (7754): windrichting: 13.09.2019 06:00:00 - 19.09.2019 06:00:00 (CEST)Calvi, Frankrijk (7754): luchtdruk: 13.09.2019 06:00:00 - 19.09.2019 06:00:00 (CEST)Calvi, Frankrijk (7754): zicht: 13.09.2019 06:00:00 - 19.09.2019 06:00:00 (CEST)Calvi, Frankrijk (7754): neerslag: 13.09.2019 06:00:00 - 19.09.2019 06:00:00 (CEST)
Datum & Tijd tt [°C] td [°C] tt 5cm [°C] ff [km/u] ff [kn] fx [km/u] fx [kn] dd ppp [hPa] vv [km] rr [mm]
19.09.2019 06:00:00 18,2 16,5 17,8 10 5 16 9 Z 1014,6 10 0,0
19.09.2019 05:00:00 18,5 16,8 18,1 8 5 11 6 Z 1014,9 7 0,0
19.09.2019 04:00:00 18,5 17,0 17,9 6 4 10 5 ZZW 1015,4 8 0,0
19.09.2019 03:00:00 19,1 17,4 18,3 7 4 11 6 ZO 1014,9 10 0,0
19.09.2019 02:00:00 19,5 17,3 19,1 10 5 14 7 Z 1015,5 12 0,0
19.09.2019 01:00:00 19,6 17,6 19,4 9 5 13 7 Z 1015,9 9 0,0
19.09.2019 00:00:00 19,6 17,6 19,3 9 5 11 6 ZZW 1016,1 9 0,0
18.09.2019 23:00:00 20,9 18,3 20,3 6 3 8 4 Z 1015,6 11 0,0
18.09.2019 22:00:00 22,4 19,0 21,8 5 3 10 5 ZZW 1015,4 12 0,0
18.09.2019 21:00:00 23,2 19,4 23,3 8 4 14 7 NO 1015,3 15 0,0
18.09.2019 20:00:00 24,1 18,7 24,1 5 3 13 7 N 1015,0 18 0,0
18.09.2019 19:00:00 24,8 19,6 25,7 8 4 12 7 O 1014,6 20 0,0
18.09.2019 18:00:00 24,5 20,0 25,6 9 5 13 7 O 1014,8 20 0,0
18.09.2019 17:00:00 24,1 20,0 25,4 8 4 16 8 N 1014,9 19 0,0
18.09.2019 16:00:00 24,5 19,6 26,1 5 3 18 10 NNO 1015,0 19 0,0
18.09.2019 15:00:00 24,4 19,7 26,2 11 6 22 12 N 1015,3 20 0,0
18.09.2019 14:00:00 25,0 19,8 28,0 16 9 24 13 N 1015,2 21 0,0
18.09.2019 13:00:00 25,5 19,6 28,5 17 9 26 14 N 1015,2 16 0,0
18.09.2019 12:00:00 25,5 18,7 27,1 12 7 19 10 N 1015,3 19 0,0
18.09.2019 11:00:00 25,3 18,5 26,6 10 5 16 9 NNW 1015,3 28 0,0
18.09.2019 10:00:00 25,1 17,0 24,6 2 1 8 5 OZO 1015,1 20 0,0
18.09.2019 09:00:00 22,1 15,7 18,5 4 2 13 7 Z 1014,9 35 0,0
18.09.2019 08:00:00 17,7 14,4 16,3 7 4 14 8 Z 1014,6 29 0,0
18.09.2019 07:00:00 16,5 13,8 16,2 13 7 17 9 Z 1014,7 22 0,0
18.09.2019 06:00:00 17,0 14,8 16,3 11 6 14 7 Z 1014,8 19 0,0
18.09.2019 05:00:00 16,9 14,7 16,5 9 5 13 7 Z 1015,0 17 0,0
18.09.2019 04:00:00 17,4 15,2 16,6 5 3 13 7 Z 1014,8 17 0,0
18.09.2019 03:00:00 17,6 15,2 17,0 12 7 14 8 Z 1015,3 23 0,0
18.09.2019 02:00:00 17,6 14,9 17,2 6 3 12 6 Z 1015,5 24 0,0
18.09.2019 01:00:00 18,6 15,5 17,6 9 5 14 8 ZZW 1015,1 23 0,0
18.09.2019 00:00:00 18,8 15,3 18,2 8 4 14 8 Z 1015,0 23 0,0
17.09.2019 23:00:00 19,1 15,8 18,1 6 4 9 5 ZZW 1014,9 22 0,0
17.09.2019 22:00:00 19,7 16,2 19,2 4 2 10 5 ZZO 1014,9 31 0,0
17.09.2019 21:00:00 22,6 19,0 21,8 2 1 13 7 N 1014,9 24 0,0
17.09.2019 20:00:00 23,3 19,5 22,7 3 2 13 7 Z 1014,7 28 0,0
17.09.2019 19:00:00 24,7 19,8 25,2 12 7 22 12 ONO 1014,4 36 0,0
17.09.2019 18:00:00 26,4 19,3 29,1 15 8 23 12 ONO 1014,4 42 0,0
17.09.2019 17:00:00 28,7 17,2 34,1 9 5 20 11 O 1014,4 58 0,0
17.09.2019 16:00:00 30,3 14,8 35,9 10 5 22 12 ZZW 1014,7 23 0,0
17.09.2019 15:00:00 30,1 15,0 35,5 10 6 23 12 Z 1015,3 52 0,0
17.09.2019 14:00:00 30,1 14,2 33,0 13 7 29 16 ZZW 1015,6 35 0,0
17.09.2019 13:00:00 29,7 13,5 33,5 14 8 31 17 ZZW 1015,9 33 0,0
17.09.2019 12:00:00 29,3 13,5 32,2 16 9 28 15 WZW 1016,4 59 0,0
17.09.2019 11:00:00 28,4 12,7 28,3 6 3 18 10 N 1016,7 45 0,0
17.09.2019 10:00:00 27,0 12,2 25,5 8 4 13 7 N 1016,4 52 0,0
17.09.2019 09:00:00 23,2 13,7 19,1 5 3 12 6 ZZW 1016,3 45 0,0
17.09.2019 08:00:00 18,2 13,1 16,3 8 4 10 6 Z 1016,4 36 0,0
17.09.2019 07:00:00 16,8 12,7 16,1 8 4 9 5 Z 1016,2 17 0,0
17.09.2019 06:00:00 17,5 13,2 16,6 4 2 14 7 Z 1016,3 48 0,0
17.09.2019 05:00:00 18,2 14,1 17,3 9 5 15 8 Z 1016,4 52 0,0
17.09.2019 04:00:00 18,6 15,1 17,7 11 6 15 8 Z 1017,0 49 0,0
17.09.2019 03:00:00 18,6 15,5 17,3 13 7 17 9 Z 1017,6 43 0,0
17.09.2019 02:00:00 18,2 15,8 17,1 10 5 13 7 Z 1018,1 33 0,0
17.09.2019 01:00:00 18,6 15,7 18,0 9 5 12 7 Z 1017,7 36 0,0
17.09.2019 00:00:00 18,4 15,8 17,5 5 3 9 5 Z 1018,5 34 0,0
16.09.2019 23:00:00 19,2 15,9 18,3 8 5 11 6 Z 1018,3 39 0,0
16.09.2019 22:00:00 19,4 15,7 18,8 4 2 11 6 Z 1018,0 39 0,0
16.09.2019 21:00:00 21,1 16,7 20,5 6 4 11 6 Z 1017,7 37 0,0
16.09.2019 20:00:00 23,1 18,6 21,7 3 2 7 4 WNW 1017,4 41 0,0
16.09.2019 19:00:00 24,7 18,4 25,2 6 3 11 6 N 1017,1 20 0,0
16.09.2019 18:00:00 25,7 17,1 29,2 8 4 22 12 N 1017,2 59 0,0
16.09.2019 17:00:00 26,3 17,9 30,7 16 9 22 12 N 1017,3 53 0,0
16.09.2019 16:00:00 26,4 18,0 31,7 14 8 24 13 NNW 1017,4 60 0,0
16.09.2019 15:00:00 26,7 17,7 32,5 16 9 26 14 N 1018,0 55 0,0
16.09.2019 14:00:00 27,1 17,8 30,8 16 9 26 14 N 1018,5 50 0,0
16.09.2019 13:00:00 26,8 18,1 30,9 21 11 31 17 N 1019,3 49 0,0
16.09.2019 12:00:00 27,0 19,6 31,5 22 12 30 16 N 1019,5 39 0,0
16.09.2019 11:00:00 27,2 16,5 27,4 12 7 18 10 N 1019,6 60 0,0
16.09.2019 10:00:00 26,2 15,3 25,2 0 0 4 2 N 1019,6 50 0,0
16.09.2019 09:00:00 23,2 15,5 20,9 0 0 9 5 N 1019,5 49 0,0
16.09.2019 08:00:00 20,7 15,3 18,7 9 5 12 7 Z 1019,5 43 0,0
16.09.2019 07:00:00 19,0 14,5 18,4 6 3 14 7 ZZW 1019,4 41 0,0
16.09.2019 06:00:00 19,1 15,0 18,1 10 5 13 7 ZZW 1019,4 39 0,0
16.09.2019 05:00:00 19,1 15,0 18,1 5 3 11 6 ZZO 1019,7 43 0,0
16.09.2019 04:00:00 18,6 14,7 17,5 4 2 11 6 Z 1020,1 42 0,0
16.09.2019 03:00:00 18,1 14,8 17,5 5 3 11 6 ZZW 1020,6 37 0,0
16.09.2019 02:00:00 18,6 15,1 17,9 5 3 10 5 ZW 1020,8 41 0,0
16.09.2019 01:00:00 19,6 15,3 19,0 5 3 13 7 Z 1020,7 36 0,0
16.09.2019 00:00:00 19,9 15,7 19,0 7 4 10 5 Z 1020,8 40 0,0
15.09.2019 23:00:00 20,6 16,2 19,7 10 5 12 6 ZZW 1020,9 41 0,0
15.09.2019 22:00:00 21,1 15,9 20,7 6 4 13 7 Z 1021,2 46 0,0
15.09.2019 21:00:00 21,3 16,0 21,1 11 6 13 7 Z 1021,4 37 0,0
15.09.2019 20:00:00 23,3 17,1 22,5 0 0 6 4 N 1021,4 36 0,0
15.09.2019 19:00:00 24,8 17,5 25,2 5 3 16 9 NNW 1021,5 59 0,0
15.09.2019 18:00:00 25,4 18,1 27,4 11 6 21 12 NNO 1022,1 55 0,0
15.09.2019 17:00:00 25,7 19,1 29,0 15 8 24 13 N 1022,3 44 0,0
15.09.2019 16:00:00 26,5 18,9 30,8 19 10 28 15 N 1022,5 20 0,0
15.09.2019 15:00:00 26,9 18,2 32,3 20 11 31 17 N 1022,7 60 0,0
15.09.2019 14:00:00 27,6 19,4 31,4 21 12 31 17 N 1022,9 60 0,0
15.09.2019 13:00:00 28,0 16,6 30,6 16 9 23 12 N 1023,2 45 0,0
15.09.2019 12:00:00 26,9 18,2 30,4 12 7 19 10 N 1023,5 60 0,0
15.09.2019 11:00:00 26,4 17,7 27,0 12 6 20 11 N 1024,0 60 0,0
15.09.2019 10:00:00 26,0 16,3 26,0 6 3 13 7 NNO 1023,8 52 0,0
15.09.2019 09:00:00 23,4 13,6 19,1 3 2 14 7 ZO 1024,1 54 0,0
15.09.2019 08:00:00 18,2 12,4 15,1 6 3 16 9 Z 1023,7 55 0,0
15.09.2019 07:00:00 15,4 11,6 14,7 8 5 11 6 ZZW 1023,8 40 0,0
15.09.2019 06:00:00 16,8 11,7 15,8 4 2 13 7 ZZO 1023,0 52 0,0
15.09.2019 05:00:00 16,9 11,8 15,7 5 3 10 5 ZZW 1023,2 50 0,0
15.09.2019 04:00:00 17,2 12,3 16,5 9 5 13 7 Z 1023,4 52 0,0
15.09.2019 03:00:00 17,7 13,2 16,7 6 4 11 6 ZZW 1023,5 44 0,0
15.09.2019 02:00:00 18,8 13,4 17,5 8 4 15 8 ZZW 1023,9 58 0,0
15.09.2019 01:00:00 17,9 13,4 17,3 8 5 16 9 ZZW 1023,9 52 0,0
15.09.2019 00:00:00 18,2 13,1 17,5 13 7 16 9 Z 1024,1 49 0,0
14.09.2019 23:00:00 19,3 14,3 18,2 9 5 16 9 ZZW 1024,3 45 0,0
14.09.2019 22:00:00 19,6 13,8 19,1 13 7 16 8 Z 1024,4 32 0,0
14.09.2019 21:00:00 21,0 15,3 20,3 6 3 9 5 Z 1024,2 18 0,0
14.09.2019 20:00:00 23,4 17,2 22,9 9 5 16 9 ONO 1023,6 46 0,0
14.09.2019 19:00:00 25,6 16,7 25,7 11 6 22 12 NW 1023,0 53 0,0
14.09.2019 18:00:00 28,7 15,2 29,7 9 5 22 12 NW 1022,2 54 0,0
14.09.2019 17:00:00 27,6 15,6 29,0 12 6 36 19 NW 1023,0 56 0,0
14.09.2019 16:00:00 29,9 13,2 32,7 13 7 34 18 NW 1023,4 60 0,0
14.09.2019 15:00:00 28,3 15,9 32,1 18 10 40 22 NW 1023,6 39 0,0
14.09.2019 14:00:00 31,9 10,0 33,9 29 16 39 21 N 1023,7 20 0,0
14.09.2019 13:00:00 31,6 11,4 32,1 14 8 29 15 NNW 1024,4 60 0,0
14.09.2019 12:00:00 27,7 15,4 31,1 17 9 28 15 NW 1024,9 60 0,0
14.09.2019 11:00:00 27,4 14,1 27,9 13 7 21 11 N 1025,4 47 0,0
14.09.2019 10:00:00 26,9 15,9 26,2 5 3 9 5 N 1025,8 45 0,0
14.09.2019 09:00:00 24,3 13,8 21,2 0 0 6 3 N 1026,0 38 0,0
14.09.2019 08:00:00 20,7 12,1 17,7 4 2 17 9 ZZW 1026,1 42 0,0
14.09.2019 07:00:00 18,3 11,6 16,3 11 6 17 9 ZZW 1025,6 47 0,0
14.09.2019 06:00:00 19,0 12,7 17,4 10 5 15 8 ZZW 1025,4 31 0,0
14.09.2019 05:00:00 17,6 13,1 16,6 9 5 18 10 Z 1025,1 32 0,0
14.09.2019 04:00:00 17,4 12,9 16,7 12 7 14 8 Z 1024,9 28 0,0
14.09.2019 03:00:00 17,5 13,2 16,5 7 4 16 8 ZZO 1025,4 25 0,0
14.09.2019 02:00:00 17,2 13,3 16,7 3 2 13 7 ZZW 1025,6 20 0,0
14.09.2019 01:00:00 17,3 14,0 16,6 6 3 13 7 Z 1025,9 20 0,0
14.09.2019 00:00:00 17,3 13,8 16,9 5 3 12 7 Z 1025,9 23 0,0
13.09.2019 23:00:00 18,6 14,7 17,6 4 2 13 7 Z 1026,1 26 0,0
13.09.2019 22:00:00 19,4 15,3 19,1 9 5 12 6 Z 1026,0 27 0,0
13.09.2019 21:00:00 21,4 17,0 20,0 5 3 11 6 ZZO 1026,2 29 0,0
13.09.2019 20:00:00 23,5 17,9 23,2 7 4 22 12 NW 1025,8 36 0,0
13.09.2019 19:00:00 24,8 17,0 25,0 11 6 30 16 NW 1025,5 34 0,0
13.09.2019 18:00:00 26,3 18,4 29,0 11 6 30 16 WNW 1025,3 37 0,0
13.09.2019 17:00:00 27,9 15,9 31,5 17 9 32 18 WNW 1025,3 40 0,0
13.09.2019 16:00:00 30,8 12,2 34,9 19 10 34 18 N 1025,2 60 0,0
13.09.2019 15:00:00 29,8 13,5 34,5 22 12 37 20 NW 1025,4 20 0,0
13.09.2019 14:00:00 31,2 11,1 33,8 24 13 45 25 N 1025,9 38 0,0
13.09.2019 13:00:00 31,0 11,4 34,0 32 17 50 27 N 1025,6 20 0,0
13.09.2019 12:00:00 30,8 10,2 32,4 32 18 43 23 N 1025,9 44 0,0
13.09.2019 11:00:00 29,9 9,4 29,3 26 14 37 20 N 1026,0 20 0,0
13.09.2019 10:00:00 28,3 8,0 26,3 15 8 33 18 NNO 1026,4 54 0,0
13.09.2019 09:00:00 24,2 12,5 19,4 8 4 18 10 ZZW 1026,8 53 0,0
13.09.2019 08:00:00 18,5 12,3 15,3 8 4 15 8 Z 1027,1 52 0,0
13.09.2019 07:00:00 16,4 11,5 15,5 7 4 13 7 Z 1027,3 59 0,0
13.09.2019 06:00:00 17,3 11,6 15,3 7 4 13 7 Z 1027,3 57 0,0

tt = temperatuur
td = dauwpunt
tt 5cm = temperatuur 5cm
ff = windsnelheid
fx = windstoten
dd = windrichting
ppp = luchtdruk
vv = zicht
rr = neerslag

Weerstations in de omgeving